Weather History for Auburn, CA

Change the Weather History Date:

Monday, January 21, 2013

  Actual Average Record
Temperature  
Mean Temperature 48 °F -  
Max Temperature 62 °F 55 °F 71 °F (2014)
Min Temperature 35 °F 37 °F 23 °F (1962)
Degree Days  
Heating Degree Days 16    
Moisture  
Dew Point 31 °F    
Average Humidity 50    
Maximum Humidity 87    
Minimum Humidity 31    
Precipitation  
Precipitation 0.00 in - - ()
Sea Level Pressure  
Sea Level Pressure 30.16 in    
Wind  
Wind Speed 2 mph (SE)    
Max Wind Speed 9 mph    
Max Gust Speed -    
Visibility 10 miles    
Events      
Averages and records for this station are not official NWS values.
T = Trace of Precipitation, MM = Missing Value Source: NWS Daily Summary

Daily Weather History Graph

Daily Weather History Graph

Search for Another Location

Airport:

Trip Planner

Search our weather history database for the weather conditions in past years. The results will help you decide how hot, cold, wet, or windy it might be!

Date:

Astronomy

Jan. 21, 2013 Rise Set
Actual Time 7:18 AM PST 5:13 PM PST
Civil Twilight 6:49 AM PST 5:42 PM PST
Nautical Twilight 6:17 AM PST 6:14 PM PST
Astronomical Twilight 5:45 AM PST 6:46 PM PST
Moon 12:57 PM PST (1/21) 2:51 AM PST (1/21)
Length of Visible Light 10h 52m
Length of Day
9h 54m
Waxing Gibbous, 76% of the Moon is Illuminated
Jan 21
Waxing Gibbous
Jan 26
Full
Feb 3
Last Quarter
Feb 9
New
Feb 17
First Quarter

Hourly Weather History & Observations

Time (PST) Temp. Windchill Dew Point Humidity Pressure Visibility Wind Dir Wind Speed Gust Speed Precip Events Conditions
12:15 AM 46.4 °F 43.5 °F 32.0 °F 57% 30.18 in 10.0 mi East 5.8 mph - N/A   Clear
12:35 AM 46.4 °F - 32.0 °F 57% 30.18 in 10.0 mi Calm Calm - N/A   Clear
12:55 AM 46.4 °F 44.3 °F 32.0 °F 57% 30.18 in 10.0 mi ESE 4.6 mph - N/A   Clear
1:15 AM 44.6 °F - 32.0 °F 61% 30.18 in 10.0 mi Calm Calm - N/A   Clear
1:35 AM 41.0 °F - 32.0 °F 70% 30.19 in 10.0 mi Calm Calm - N/A   Clear
1:55 AM 42.8 °F 41.1 °F 30.2 °F 61% 30.18 in 10.0 mi East 3.5 mph - N/A   Clear
2:15 AM 42.8 °F 40.1 °F 30.2 °F 61% 30.18 in 10.0 mi East 4.6 mph - N/A   Clear
2:35 AM 42.8 °F - 30.2 °F 61% 30.18 in 10.0 mi Calm Calm - N/A   Clear
2:55 AM 44.6 °F 43.1 °F 28.4 °F 53% 30.17 in 10.0 mi ESE 3.5 mph - N/A   Clear
3:15 AM 46.4 °F 45.2 °F 26.6 °F 46% 30.17 in 10.0 mi East 3.5 mph - N/A   Clear
3:35 AM 42.8 °F - 28.4 °F 57% 30.16 in 10.0 mi Calm Calm - N/A   Clear
3:55 AM 46.4 °F 42.9 °F 24.8 °F 43% 30.15 in 10.0 mi East 6.9 mph - N/A   Clear
4:15 AM 46.4 °F 42.9 °F 24.8 °F 43% 30.15 in 10.0 mi ESE 6.9 mph - N/A   Clear
4:35 AM 46.4 °F 44.3 °F 24.8 °F 43% 30.15 in 10.0 mi ESE 4.6 mph - N/A   Clear
5:15 AM 44.6 °F - 23.0 °F 43% 30.15 in 10.0 mi Calm Calm - N/A   Clear
5:35 AM 37.4 °F - 24.8 °F 60% 30.15 in 10.0 mi Calm Calm - N/A   Clear
5:55 AM 35.6 °F - 26.6 °F 70% 30.15 in 10.0 mi Calm Calm - N/A   Clear
6:15 AM 35.6 °F - 26.6 °F 70% 30.15 in 10.0 mi Calm Calm - N/A   Clear
6:35 AM 41.0 °F - 24.8 °F 53% 30.15 in 10.0 mi Calm Calm - N/A   Clear
6:55 AM 42.8 °F 38.6 °F 24.8 °F 49% 30.14 in 10.0 mi East 6.9 mph - N/A   Clear
7:15 AM 42.8 °F 40.1 °F 23.0 °F 46% 30.14 in 10.0 mi ESE 4.6 mph - N/A   Clear
7:35 AM 44.6 °F 40.7 °F 23.0 °F 43% 30.13 in 10.0 mi East 6.9 mph - N/A   Clear
7:55 AM 46.4 °F 45.2 °F 21.2 °F 37% 30.13 in 10.0 mi East 3.5 mph - N/A   Clear
8:15 AM 48.2 °F - 23.0 °F 37% 30.13 in 10.0 mi Calm Calm - N/A   Clear
8:35 AM 48.2 °F - 26.6 °F 43% 30.15 in 10.0 mi West 4.6 mph - N/A   Clear
8:55 AM 48.2 °F - 26.6 °F 43% 30.16 in 10.0 mi Calm Calm - N/A   Clear
9:15 AM 51.8 °F - 26.6 °F 38% 30.17 in 10.0 mi Calm Calm - N/A   Clear
9:35 AM 53.6 °F - 28.4 °F 38% 30.18 in 10.0 mi Calm Calm - N/A   Clear
9:55 AM 55.4 °F - 26.6 °F 33% 30.18 in 10.0 mi Calm Calm - N/A   Clear
10:15 AM 55.4 °F - 26.6 °F 33% 30.18 in 10.0 mi Calm Calm - N/A   Clear
10:35 AM 57.2 °F - 28.4 °F 33% 30.19 in 10.0 mi Calm Calm - N/A   Clear
10:55 AM 57.2 °F - 30.2 °F 36% 30.18 in 10.0 mi Calm Calm - N/A   Clear
11:15 AM 60.8 °F - 30.2 °F 31% 30.19 in 10.0 mi SW 5.8 mph - N/A   Clear
11:35 AM 59.0 °F - 30.2 °F 34% 30.18 in 10.0 mi SW 4.6 mph - N/A   Clear
11:55 AM 60.8 °F - 30.2 °F 31% 30.17 in 10.0 mi SSW 3.5 mph - N/A   Clear
12:15 PM 60.8 °F - 32.0 °F 34% 30.17 in 10.0 mi Calm Calm - N/A   Clear
12:35 PM 60.8 °F - 32.0 °F 34% 30.16 in 10.0 mi Calm Calm - N/A   Clear
12:55 PM 60.8 °F - 33.8 °F 36% 30.16 in 10.0 mi SW 5.8 mph - N/A   Clear
1:15 PM 60.8 °F - 33.8 °F 36% 30.16 in 10.0 mi SSW 5.8 mph - N/A   Clear
1:35 PM 60.8 °F - 35.6 °F 39% 30.16 in 10.0 mi SSW 4.6 mph - N/A   Clear
1:55 PM 60.8 °F - 33.8 °F 36% 30.15 in 10.0 mi South 4.6 mph - N/A   Clear
2:15 PM 62.6 °F - 33.8 °F 34% 30.15 in 10.0 mi SW 3.5 mph - N/A   Clear
2:35 PM 62.6 °F - 33.8 °F 34% 30.15 in 10.0 mi Calm Calm - N/A   Clear
2:55 PM 62.6 °F - 33.8 °F 34% 30.15 in 10.0 mi Calm Calm - N/A   Clear
3:15 PM 62.6 °F - 35.6 °F 37% 30.15 in 10.0 mi Calm Calm - N/A   Clear
3:35 PM 62.6 °F - 35.6 °F 37% 30.15 in 10.0 mi Calm Calm - N/A   Clear
3:55 PM 62.6 °F - 35.6 °F 37% 30.14 in 10.0 mi Calm Calm - N/A   Clear
4:15 PM 62.6 °F - 35.6 °F 37% 30.14 in 10.0 mi Calm Calm - N/A   Clear
4:55 PM 59.0 °F - 35.6 °F 42% 30.15 in 10.0 mi Calm Calm - N/A   Clear
5:15 PM 55.4 °F - 35.6 °F 47% 30.15 in 10.0 mi Calm Calm - N/A   Clear
5:35 PM 46.4 °F - 35.6 °F 66% 30.15 in 10.0 mi Calm Calm - N/A   Clear
6:15 PM 50.0 °F - 37.4 °F 62% 30.13 in 10.0 mi Calm Calm - N/A   Clear
6:35 PM 48.2 °F - 35.6 °F 62% 30.13 in 10.0 mi Calm Calm - N/A   Clear
6:55 PM 53.6 °F - 35.6 °F 51% 30.12 in 10.0 mi East 9.2 mph - N/A   Clear
7:15 PM 51.8 °F - 35.6 °F 54% 30.13 in 10.0 mi Calm Calm - N/A   Clear
7:35 PM 50.0 °F - 35.6 °F 58% 30.13 in 10.0 mi Calm Calm - N/A   Clear
7:55 PM 44.6 °F - 35.6 °F 71% 30.13 in 10.0 mi Calm Calm - N/A   Clear
8:15 PM 41.0 °F - 33.8 °F 76% 30.13 in 10.0 mi Calm Calm - N/A   Clear
8:35 PM 39.2 °F - 33.8 °F 81% 30.13 in 10.0 mi Calm Calm - N/A   Clear
9:15 PM 39.2 °F - 33.8 °F 81% 30.14 in 10.0 mi Calm Calm - N/A   Clear
9:35 PM 37.4 °F - 33.8 °F 87% 30.14 in 10.0 mi Calm Calm - N/A   Clear
10:15 PM 41.0 °F - 33.8 °F 76% 30.15 in 10.0 mi Calm Calm - N/A   Clear
10:55 PM 42.8 °F - 33.8 °F 70% 30.16 in 10.0 mi Calm Calm - N/A   Clear
11:15 PM 42.8 °F - 32.0 °F 66% 30.16 in 10.0 mi Calm Calm - N/A   Clear
11:35 PM 46.4 °F 42.4 °F 32.0 °F 57% 30.16 in 10.0 mi East 8.1 mph - N/A   Clear
11:55 PM 46.4 °F 41.9 °F 32.0 °F 57% 30.16 in 10.0 mi East 9.2 mph - N/A   Clear